Location: Unspecified
(41.5000°N, 0.0000°E)
Time: 04:26:23
(UTC+00:00)

deb Explorer IX - Pass Details

Date: 20 June 2019
Orbit: 540 x 1111 km, 38.8° (Epoch: 20 August)

Event Time Altitude Azimuth Distance (km) Brightness Sun altitude
Rises 12:14:02 0° 193° (SSW) 3,755 ? 71.7°
Reaches altitude 10° 12:17:58 10° 171° (S) 2,886 ? 71.6°
Maximum altitude 12:21:45 15° 139° (SE) 2,571 ? 71.4°
Drops below altitude 10° 12:25:37 10° 107° (ESE) 2,969 ? 71.2°
Sets 12:29:45 0° 86° (E) 3,927 ? 71.0°
